Location: Sihaung
(22.8641°N, 94.0549°E)
Time: 11:39:32
(UTC+00:00)

COSMOS 2428 - Pass Details

Date: 03 March 2021
Orbit: 845 x 858 km, 70.9° (Epoch: 17 April)

Event Time Altitude Azimuth Distance (km) Brightness Sun altitude
Rises 14:05:14 0° 222° (SW) 3,391 6.3 -32.3°
Reaches altitude 10° 14:07:58 10° 232° (SW) 2,458 5.6 -33.0°
Maximum altitude 14:12:50 30° 292° (WNW) 1,479 4.4 -34.1°
Enters shadow 14:17:42 10° 352° (N) 2,456 5.2 -35.2°
